Regional Weather Roundup
Issued by NWS Green Bay, WI

Home | Current Version | Previous Version | Graphics & Text | Print | Product List | Glossary Off
Versions: 1 2 3 4 5 6 7 8 9 10 11 12 13 14 15 16 17 18 19 20 21 22 23 24 25 26 27 28 29 30 31 32 33 34 35 36 37 38 39 40 41 42 43 44 45 46 47 48 49 50

000
ASUS43 KGRB 121111
RWRGRB

NORTH-CENTRAL AND NORTHEAST WISCONSIN REGIONAL WEATHER ROUNDUP
NATIONAL WEATHER SERVICE GREEN BAY WI
500 AM CST FRI FEB 12 2016

WIZ005-009-010>012-018-019-121200-
NORTH CENTRAL WISCONSIN

CITY           SKY/WX    TMP DP  RH WIND       PRES   REMARKS
IRONWOOD       CLOUDY     9   1  72 W15G24    30.03S WCI  -8
MANITOWISH WTR CLEAR      6   0  76 NW10G17   30.01R WCI  -9
ARBOR VITAE    MOCLDY    11   2  68 NW10G17   30.00S WCI  -3
EAGLE RIVER    MOCLDY     8  -1  66 W10G16    29.98S WCI  -7
LAND O LAKES   LGT SNOW   8   3  79 W7G18     29.98S WCI  -3
RHINELANDER    CLOUDY     9  -1  64 NW13G22   30.01R WCI  -7
PHILLIPS       CLOUDY     7  -2  66 NW13G22   30.06R WCI  -9
ANTIGO         CLOUDY     8   1  73 NW13G18   30.02R WCI  -8
TOMAHAWK       CLOUDY     8  -1  66 W12       30.04S WCI  -7
MERRILL        CLOUDY    10   1  67 NW10      30.06S WCI  -4
$$

WIZ013-073-121200-
NORTHEAST WISCONSIN

CITY           SKY/WX    TMP DP  RH WIND       PRES   REMARKS
IRON MOUNTAIN  CLEAR      8  -2  63 W6        29.97S WCI  -2
MARINETTE      PTCLDY    12  -2  52 W7        30.05S WCI   2
OCONTO         CLOUDY    13   1  57 W6        30.08S WCI   4
$$

WIZ017-030-035>037-045-121200-
CENTRAL WISCONSIN

CITY           SKY/WX    TMP DP  RH WIND       PRES   REMARKS
MEDFORD        CLOUDY    10   4  76 W9        30.06R WCI  -3
WAUSAU         MOCLDY    12   3  67 NW14      30.05S WCI  -3
MOSINEE        NOT AVBL
MARSHFIELD     CLOUDY    13   4  67 W12       30.07S WCI  -1
WISC RAPIDS    CLOUDY    12   3  67 W9        30.12S WCI   0
STEVENS POINT  CLOUDY    11   2  68 W7        30.09S WCI   0
WAUPACA        CLOUDY    16   4  60 W8        30.10R WCI   5
SHAWANO        CLOUDY    15   2  58 W5        30.08S WCI   7
CLINTONVILLE   CLOUDY    14   3  62 W9        30.09R WCI   2
WAUTOMA        CLOUDY    14   3  61 NW8       30.12S WCI   3
$$

WIZ038-039-048-051-121200-
FOX VALLEY

CITY           SKY/WX    TMP DP  RH WIND       PRES   REMARKS
NWS GREEN BAY  CLOUDY    14   3  61 W9        30.08S WCI   2
APPLETON       NOT AVBL
OSHKOSH        CLOUDY    14   3  61 W10       30.10R WCI   1
FOND DU LAC    CLOUDY    15   3  59 W10       30.10S WCI   2
$$

WIZ022-050-052-121200-
EAST CENTRAL WISCONSIN

CITY           SKY/WX    TMP DP  RH WIND       PRES   REMARKS
EPHRAIM        FAIR      13   0  57 W12G18    30.01S WCI  -1
STURGEON BAY   MOCLDY    12   0  57 W12       30.06S WCI  -2
MANITOWOC      CLOUDY    15   4  61 W10G17    30.08F WCI   2
SHEBOYGAN      CLOUDY    15   2  56 W14       30.08F WCI   0
$$

LMZ563-521-522-541>543-121200-
LAKESHORE

STATION/POSITION TIME  TEMP    WIND        PRES    VSBY  WAVE
                       AIR SEA DIR/SP/G                  HT/PER
                 (UTC) (F)     (DEG/KT/KT) (MB)    (MI)  (FT/S)
SHEBOYGAN LKSHOR 1100   16     290/ 13/ 15 1020.4F
KEWAUNEE LKSHORE 1000   15                   N/A
CHAMBERS ISLAND  1000   14     250/  8/ 14 1017.3F
MENOMINEE LKSHOR 1000   14                   N/A
$$



USA.gov is the U.S. government's official web portal to all federal, state and local government web resources and services.